date,time,SUV Intensity [MED/Hr],UV Index,Daily total [MED],Since Last [MED]
23/11/2022,00:02:59,-0.000,0.0,0.0,0.0
23/11/2022,00:03:58,-0.000,0.0,0.0,0.0
23/11/2022,00:04:58,-0.000,0.0,0.0,0.0
23/11/2022,00:05:59,-0.000,0.0,0.0,0.0
23/11/2022,00:06:59,-0.000,0.0,0.0,0.0
23/11/2022,00:07:59,-0.000,0.0,0.0,0.0
23/11/2022,00:08:58,-0.000,0.0,0.0,0.0
23/11/2022,00:09:58,-0.000,0.0,0.0,0.0
23/11/2022,00:10:59,-0.000,0.0,0.0,0.0
23/11/2022,00:11:59,-0.000,0.0,0.0,0.0
23/11/2022,00:12:59,-0.000,0.0,0.0,0.0
23/11/2022,00:13:58,-0.000,0.0,0.0,0.0
23/11/2022,00:14:59,-0.000,0.0,0.0,0.0
23/11/2022,00:15:58,-0.000,0.0,0.0,0.0
23/11/2022,00:16:59,-0.000,0.0,0.0,0.0
23/11/2022,00:17:59,-0.000,0.0,0.0,0.0
23/11/2022,00:18:59,-0.000,0.0,0.0,0.0
23/11/2022,00:19:59,-0.000,0.0,0.0,0.0
23/11/2022,00:20:59,-0.000,0.0,0.0,0.0
23/11/2022,00:21:58,-0.000,0.0,0.0,0.0
23/11/2022,00:22:59,-0.000,0.0,0.0,0.0
23/11/2022,00:23:59,-0.000,0.0,0.0,0.0
23/11/2022,00:24:58,-0.000,0.0,0.0,0.0
23/11/2022,00:25:58,-0.000,0.0,0.0,0.0
23/11/2022,00:26:59,-0.000,0.0,0.0,0.0
23/11/2022,00:27:58,-0.000,0.0,0.0,0.0
23/11/2022,00:28:59,-0.000,0.0,0.0,0.0
23/11/2022,00:29:59,-0.001,0.0,0.0,0.0
23/11/2022,00:30:59,-0.000,0.0,0.0,0.0
23/11/2022,00:31:59,-0.000,0.0,0.0,0.0
23/11/2022,00:32:59,-0.000,0.0,0.0,0.0
23/11/2022,00:33:58,-0.000,0.0,0.0,0.0
23/11/2022,00:34:59,-0.001,0.0,0.0,0.0
23/11/2022,00:35:59,-0.000,0.0,0.0,0.0
23/11/2022,00:36:59,-0.001,0.0,0.0,0.0
23/11/2022,00:37:58,-0.000,0.0,0.0,0.0
23/11/2022,00:38:59,-0.001,0.0,0.0,0.0
23/11/2022,00:39:59,-0.001,0.0,0.0,0.0
23/11/2022,00:40:59,-0.000,0.0,0.0,0.0
23/11/2022,00:41:59,-0.000,0.0,0.0,0.0
23/11/2022,00:42:59,-0.001,0.0,0.0,0.0
23/11/2022,00:43:59,-0.001,0.0,0.0,0.0
23/11/2022,00:44:59,-0.000,0.0,0.0,0.0
23/11/2022,00:45:59,-0.001,0.0,0.0,0.0
23/11/2022,00:46:59,-0.001,0.0,0.0,0.0
23/11/2022,00:47:59,-0.001,0.0,0.0,0.0
23/11/2022,00:48:59,-0.001,0.0,0.0,0.0
23/11/2022,00:49:58,-0.001,0.0,0.0,0.0
23/11/2022,00:50:59,-0.000,0.0,0.0,0.0
23/11/2022,00:51:59,-0.001,0.0,0.0,0.0
23/11/2022,00:52:58,-0.001,0.0,0.0,0.0
23/11/2022,00:53:59,-0.001,0.0,0.0,0.0
23/11/2022,00:54:59,-0.000,0.0,0.0,0.0
23/11/2022,00:55:59,-0.001,0.0,0.0,0.0
23/11/2022,00:56:59,-0.001,0.0,0.0,0.0
23/11/2022,00:57:59,-0.001,0.0,0.0,0.0
23/11/2022,00:58:59,-0.001,0.0,0.0,0.0
23/11/2022,00:59:59,-0.001,0.0,0.0,0.0
23/11/2022,01:00:59,-0.000,0.0,0.0,0.0
23/11/2022,01:01:59,-0.001,0.0,0.0,0.0
23/11/2022,01:02:59,-0.001,0.0,0.0,0.0
23/11/2022,01:03:58,-0.001,0.0,0.0,0.0
23/11/2022,01:04:59,-0.001,0.0,0.0,0.0
23/11/2022,01:05:59,-0.001,0.0,0.0,0.0
23/11/2022,01:06:59,-0.001,0.0,0.0,0.0
23/11/2022,01:07:59,-0.000,0.0,0.0,0.0
23/11/2022,01:09:00,-0.000,0.0,0.0,0.0
23/11/2022,01:09:59,-0.001,0.0,0.0,0.0
23/11/2022,01:10:59,-0.000,0.0,0.0,0.0
23/11/2022,01:11:59,-0.001,0.0,0.0,0.0
23/11/2022,01:12:59,-0.000,0.0,0.0,0.0
23/11/2022,01:13:59,-0.000,0.0,0.0,0.0
23/11/2022,01:14:59,-0.001,0.0,0.0,0.0
23/11/2022,01:15:58,-0.000,0.0,0.0,0.0
23/11/2022,01:16:59,-0.000,0.0,0.0,0.0
23/11/2022,01:17:59,-0.000,0.0,0.0,0.0
23/11/2022,01:18:59,-0.000,0.0,0.0,0.0
23/11/2022,01:19:59,-0.000,0.0,0.0,0.0
23/11/2022,01:20:59,-0.000,0.0,0.0,0.0
23/11/2022,01:21:59,-0.000,0.0,0.0,0.0
23/11/2022,01:22:59,0.000,0.0,0.0,0.0
23/11/2022,01:23:59,-0.000,0.0,0.0,0.0
23/11/2022,01:24:59,-0.000,0.0,0.0,0.0
23/11/2022,01:25:59,-0.000,0.0,0.0,0.0
23/11/2022,01:26:58,-0.000,0.0,0.0,0.0
23/11/2022,01:27:59,-0.000,0.0,0.0,0.0
23/11/2022,01:28:59,-0.000,0.0,0.0,0.0
23/11/2022,01:29:59,-0.000,0.0,0.0,0.0
23/11/2022,01:30:59,-0.000,0.0,0.0,0.0
23/11/2022,01:31:59,-0.000,0.0,0.0,0.0
23/11/2022,01:32:59,-0.000,0.0,0.0,0.0
23/11/2022,01:33:59,0.001,0.0,0.0,0.0
23/11/2022,01:34:59,-0.000,0.0,0.0,0.0
23/11/2022,01:35:59,-0.001,0.0,0.0,0.0
23/11/2022,01:36:58,-0.000,0.0,0.0,0.0
23/11/2022,01:37:59,-0.000,0.0,0.0,0.0
23/11/2022,01:38:58,-0.000,0.0,0.0,0.0
23/11/2022,01:39:58,0.000,0.0,0.0,0.0
23/11/2022,01:40:59,0.001,0.0,0.0,0.0
23/11/2022,01:41:59,-0.000,0.0,0.0,0.0
23/11/2022,01:42:58,-0.000,0.0,0.0,0.0
23/11/2022,01:43:59,0.000,0.0,0.0,0.0
23/11/2022,01:44:59,-0.000,0.0,0.0,0.0
23/11/2022,01:45:59,-0.000,0.0,0.0,0.0
23/11/2022,01:46:59,0.000,0.0,0.0,0.0
23/11/2022,01:47:59,0.000,0.0,0.0,0.0
23/11/2022,01:48:58,-0.000,0.0,0.0,0.0
23/11/2022,01:49:59,0.000,0.0,0.0,0.0
23/11/2022,01:50:59,0.000,0.0,0.0,0.0
23/11/2022,01:51:59,0.000,0.0,0.0,0.0
23/11/2022,01:52:59,0.000,0.0,0.0,0.0
23/11/2022,01:53:59,0.000,0.0,0.0,0.0
23/11/2022,01:54:59,0.000,0.0,0.0,0.0
23/11/2022,01:55:59,0.000,0.0,0.0,0.0
23/11/2022,01:56:59,-0.000,0.0,0.0,0.0
23/11/2022,01:57:59,-0.000,0.0,0.0,0.0
23/11/2022,01:58:59,0.000,0.0,0.0,0.0
23/11/2022,01:59:59,-0.000,0.0,0.0,0.0
23/11/2022,02:00:59,0.000,0.0,0.0,0.0
23/11/2022,02:01:59,0.000,0.0,0.0,0.0
23/11/2022,02:02:59,0.000,0.0,0.0,0.0
23/11/2022,02:03:59,0.001,0.0,0.0,0.0
23/11/2022,02:04:58,-0.000,0.0,0.0,0.0
23/11/2022,02:05:59,-0.000,0.0,0.0,0.0
23/11/2022,02:06:59,-0.000,0.0,0.0,0.0
23/11/2022,02:07:59,0.001,0.0,0.0,0.0
23/11/2022,02:08:59,-0.000,0.0,0.0,0.0
23/11/2022,02:09:59,0.000,0.0,0.0,0.0
23/11/2022,02:10:59,0.000,0.0,0.0,0.0
23/11/2022,02:11:59,0.000,0.0,0.0,0.0
23/11/2022,02:12:59,0.000,0.0,0.0,0.0
23/11/2022,02:13:59,-0.000,0.0,0.0,0.0
23/11/2022,02:14:59,0.000,0.0,0.0,0.0
23/11/2022,02:15:59,0.000,0.0,0.0,0.0
23/11/2022,02:16:59,-0.000,0.0,0.0,0.0
23/11/2022,02:17:59,0.000,0.0,0.0,0.0
23/11/2022,02:18:59,0.000,0.0,0.0,0.0
23/11/2022,02:19:59,0.000,0.0,0.0,0.0
23/11/2022,02:20:58,0.000,0.0,0.0,0.0
23/11/2022,02:21:59,0.000,0.0,0.0,0.0
23/11/2022,02:22:59,-0.000,0.0,0.0,0.0
23/11/2022,02:23:59,0.000,0.0,0.0,0.0
23/11/2022,02:24:59,0.000,0.0,0.0,0.0
23/11/2022,02:25:59,0.000,0.0,0.0,0.0
23/11/2022,02:26:59,0.000,0.0,0.0,0.0
23/11/2022,02:27:59,0.000,0.0,0.0,0.0
23/11/2022,02:28:59,0.001,0.0,0.0,0.0
23/11/2022,02:29:59,-0.001,0.0,0.0,0.0
23/11/2022,02:30:59,0.001,0.0,0.0,0.0
23/11/2022,02:31:59,0.000,0.0,0.0,0.0
23/11/2022,02:32:59,0.000,0.0,0.0,0.0
23/11/2022,02:33:59,0.000,0.0,0.0,0.0
23/11/2022,02:34:59,0.000,0.0,0.0,0.0
23/11/2022,02:35:59,0.000,0.0,0.0,0.0
23/11/2022,02:36:59,-0.000,0.0,0.0,0.0
23/11/2022,02:37:59,0.000,0.0,0.0,0.0
23/11/2022,02:38:59,-0.000,0.0,0.0,0.0
23/11/2022,02:39:59,0.000,0.0,0.0,0.0
23/11/2022,02:40:59,0.000,0.0,0.0,0.0
23/11/2022,02:41:59,-0.000,0.0,0.0,0.0
23/11/2022,02:42:59,0.000,0.0,0.0,0.0
23/11/2022,02:43:59,0.000,0.0,0.0,0.0
23/11/2022,02:44:59,0.000,0.0,0.0,0.0
23/11/2022,02:45:59,0.001,0.0,0.0,0.0
23/11/2022,02:46:59,-0.000,0.0,0.0,0.0
23/11/2022,02:47:59,0.000,0.0,0.0,0.0
23/11/2022,02:48:59,0.000,0.0,0.0,0.0
23/11/2022,02:49:59,0.000,0.0,0.0,0.0
23/11/2022,02:50:59,0.000,0.0,0.0,0.0
23/11/2022,02:51:59,0.000,0.0,0.0,0.0
23/11/2022,02:52:59,0.000,0.0,0.0,0.0
23/11/2022,02:53:59,0.001,0.0,0.0,0.0
23/11/2022,02:54:59,0.000,0.0,0.0,0.0
23/11/2022,02:55:59,0.000,0.0,0.0,0.0
23/11/2022,02:56:59,-0.000,0.0,0.0,0.0
23/11/2022,02:58:00,0.000,0.0,0.0,0.0
23/11/2022,02:58:59,0.000,0.0,0.0,0.0
23/11/2022,02:59:59,0.001,0.0,0.0,0.0
23/11/2022,03:00:59,0.000,0.0,0.0,0.0
23/11/2022,03:01:59,0.000,0.0,0.0,0.0
23/11/2022,03:02:59,-0.000,0.0,0.0,0.0
23/11/2022,03:03:59,0.000,0.0,0.0,0.0
23/11/2022,03:04:59,0.000,0.0,0.0,0.0
23/11/2022,03:05:59,0.000,0.0,0.0,0.0
23/11/2022,03:06:59,-0.000,0.0,0.0,0.0
23/11/2022,03:07:59,0.000,0.0,0.0,0.0
23/11/2022,03:09:00,0.000,0.0,0.0,0.0
23/11/2022,03:09:59,0.001,0.0,0.0,0.0
23/11/2022,03:10:59,0.000,0.0,0.0,0.0
23/11/2022,03:11:59,0.000,0.0,0.0,0.0
23/11/2022,03:12:59,0.000,0.0,0.0,0.0
23/11/2022,03:13:59,0.001,0.0,0.0,0.0
23/11/2022,03:14:59,0.000,0.0,0.0,0.0
23/11/2022,03:15:59,0.001,0.0,0.0,0.0
23/11/2022,03:16:59,0.000,0.0,0.0,0.0
23/11/2022,03:17:59,0.000,0.0,0.0,0.0
23/11/2022,03:18:59,0.001,0.0,0.0,0.0
23/11/2022,03:19:59,-0.000,0.0,0.0,0.0
23/11/2022,03:20:59,-0.000,0.0,0.0,0.0
23/11/2022,03:21:59,-0.000,0.0,0.0,0.0
23/11/2022,03:22:59,0.000,0.0,0.0,0.0
23/11/2022,03:23:59,0.000,0.0,0.0,0.0
23/11/2022,03:24:59,0.000,0.0,0.0,0.0
23/11/2022,03:25:59,0.000,0.0,0.0,0.0
23/11/2022,03:26:59,-0.000,0.0,0.0,0.0
23/11/2022,03:27:59,0.000,0.0,0.0,0.0
23/11/2022,03:28:59,0.000,0.0,0.0,0.0
23/11/2022,03:29:59,0.000,0.0,0.0,0.0
23/11/2022,03:30:59,-0.000,0.0,0.0,0.0
23/11/2022,03:31:59,0.000,0.0,0.0,0.0
23/11/2022,03:32:59,-0.000,0.0,0.0,0.0
23/11/2022,03:33:59,0.000,0.0,0.0,0.0
23/11/2022,03:34:59,-0.000,0.0,0.0,0.0
23/11/2022,03:35:59,0.000,0.0,0.0,0.0
23/11/2022,03:36:59,-0.000,0.0,0.0,0.0
23/11/2022,03:38:04,0.000,0.0,0.0,0.0
23/11/2022,03:39:00,0.000,0.0,0.0,0.0
23/11/2022,03:39:59,0.000,0.0,0.0,0.0
23/11/2022,03:40:59,0.001,0.0,0.0,0.0
23/11/2022,03:41:59,0.001,0.0,0.0,0.0
23/11/2022,03:42:59,-0.000,0.0,0.0,0.0
23/11/2022,03:43:59,0.000,0.0,0.0,0.0
23/11/2022,03:45:00,0.000,0.0,0.0,0.0
23/11/2022,03:45:59,0.000,0.0,0.0,0.0
23/11/2022,03:46:59,0.001,0.0,0.0,0.0
23/11/2022,03:47:59,-0.000,0.0,0.0,0.0
23/11/2022,03:49:00,0.000,0.0,0.0,0.0
23/11/2022,03:49:59,0.001,0.0,0.0,0.0
23/11/2022,03:50:59,-0.000,0.0,0.0,0.0
23/11/2022,03:51:59,-0.000,0.0,0.0,0.0
23/11/2022,03:52:59,0.001,0.0,0.0,0.0
23/11/2022,03:53:59,0.000,0.0,0.0,0.0
23/11/2022,03:54:59,0.000,0.0,0.0,0.0
23/11/2022,03:55:59,-0.000,0.0,0.0,0.0
23/11/2022,03:56:59,0.001,0.0,0.0,0.0
23/11/2022,03:57:59,0.000,0.0,0.0,0.0
23/11/2022,03:58:59,0.000,0.0,0.0,0.0
23/11/2022,03:59:59,0.000,0.0,0.0,0.0
23/11/2022,04:00:59,0.001,0.0,0.0,0.0
23/11/2022,04:01:59,0.001,0.0,0.0,0.0
23/11/2022,04:02:59,0.001,0.0,0.0,0.0
23/11/2022,04:03:59,0.000,0.0,0.0,0.0
23/11/2022,04:05:00,0.000,0.0,0.0,0.0
23/11/2022,04:05:59,0.000,0.0,0.0,0.0
23/11/2022,04:06:59,0.000,0.0,0.0,0.0
23/11/2022,04:07:59,0.001,0.0,0.0,0.0
23/11/2022,04:08:59,0.000,0.0,0.0,0.0
23/11/2022,04:09:59,0.000,0.0,0.0,0.0
23/11/2022,04:11:00,0.000,0.0,0.0,0.0
23/11/2022,04:11:59,0.000,0.0,0.0,0.0
23/11/2022,04:12:59,0.001,0.0,0.0,0.0
23/11/2022,04:13:59,0.000,0.0,0.0,0.0
23/11/2022,04:14:59,0.000,0.0,0.0,0.0
23/11/2022,04:15:59,0.000,0.0,0.0,0.0
23/11/2022,04:16:59,-0.000,0.0,0.0,0.0
23/11/2022,04:17:59,0.000,0.0,0.0,0.0
23/11/2022,04:18:59,0.000,0.0,0.0,0.0
23/11/2022,04:20:00,0.000,0.0,0.0,0.0
23/11/2022,04:20:59,-0.000,0.0,0.0,0.0
23/11/2022,04:21:59,0.000,0.0,0.0,0.0
23/11/2022,04:22:59,0.000,0.0,0.0,0.0
23/11/2022,04:23:59,0.000,0.0,0.0,0.0
23/11/2022,04:25:00,0.000,0.0,0.0,0.0
23/11/2022,04:25:59,0.000,0.0,0.0,0.0
23/11/2022,04:26:59,0.000,0.0,0.0,0.0
23/11/2022,04:27:59,0.001,0.0,0.0,0.0
23/11/2022,04:28:59,0.000,0.0,0.0,0.0
23/11/2022,04:29:59,-0.000,0.0,0.0,0.0
23/11/2022,04:31:00,0.000,0.0,0.0,0.0
23/11/2022,04:31:59,0.000,0.0,0.0,0.0
23/11/2022,04:32:59,0.000,0.0,0.0,0.0
23/11/2022,04:34:00,0.000,0.0,0.0,0.0
23/11/2022,04:34:59,0.000,0.0,0.0,0.0
23/11/2022,04:35:59,0.000,0.0,0.0,0.0
23/11/2022,04:36:59,0.000,0.0,0.0,0.0
23/11/2022,04:37:59,0.001,0.0,0.0,0.0
23/11/2022,04:39:00,0.000,0.0,0.0,0.0
23/11/2022,04:39:59,-0.000,0.0,0.0,0.0
23/11/2022,04:40:59,0.000,0.0,0.0,0.0
23/11/2022,04:41:59,-0.000,0.0,0.0,0.0
23/11/2022,04:42:59,0.000,0.0,0.0,0.0
23/11/2022,04:43:59,0.001,0.0,0.0,0.0
23/11/2022,04:44:59,-0.000,0.0,0.0,0.0
23/11/2022,04:45:59,0.000,0.0,0.0,0.0
23/11/2022,04:46:59,0.000,0.0,0.0,0.0
23/11/2022,04:47:59,-0.000,0.0,0.0,0.0
23/11/2022,04:48:59,0.000,0.0,0.0,0.0
23/11/2022,04:49:59,-0.000,0.0,0.0,0.0
23/11/2022,04:50:59,0.000,0.0,0.0,0.0
23/11/2022,04:51:59,-0.000,0.0,0.0,0.0
23/11/2022,04:53:00,-0.000,0.0,0.0,0.0
23/11/2022,04:53:59,-0.000,0.0,0.0,0.0
23/11/2022,04:54:59,-0.000,0.0,0.0,0.0
23/11/2022,04:56:00,-0.000,0.0,0.0,0.0
23/11/2022,04:56:59,-0.000,0.0,0.0,0.0
23/11/2022,04:57:59,-0.000,0.0,0.0,0.0
23/11/2022,04:59:00,-0.000,0.0,0.0,0.0
23/11/2022,04:59:59,-0.000,0.0,0.0,0.0
23/11/2022,05:01:00,-0.000,0.0,0.0,0.0
23/11/2022,05:01:59,-0.000,0.0,0.0,0.0
23/11/2022,05:03:00,-0.000,0.0,0.0,0.0
23/11/2022,05:03:59,-0.000,0.0,0.0,0.0
23/11/2022,05:04:59,-0.000,0.0,0.0,0.0
23/11/2022,05:05:59,-0.000,0.0,0.0,0.0
23/11/2022,05:06:59,-0.000,0.0,0.0,0.0
23/11/2022,05:07:59,-0.000,0.0,0.0,0.0
23/11/2022,05:09:00,-0.000,0.0,0.0,0.0
23/11/2022,05:09:59,-0.000,0.0,0.0,0.0
23/11/2022,05:10:59,-0.000,0.0,0.0,0.0
23/11/2022,05:11:59,-0.000,0.0,0.0,0.0
23/11/2022,05:12:59,-0.000,0.0,0.0,0.0
23/11/2022,05:13:59,-0.000,0.0,0.0,0.0
23/11/2022,05:14:59,-0.000,0.0,0.0,0.0
23/11/2022,05:16:00,-0.000,0.0,0.0,0.0
23/11/2022,05:16:59,-0.000,0.0,0.0,0.0
23/11/2022,05:18:00,-0.000,0.0,0.0,0.0
23/11/2022,05:18:59,-0.000,0.0,0.0,0.0
23/11/2022,05:19:59,-0.000,0.0,0.0,0.0
23/11/2022,05:20:59,-0.000,0.0,0.0,0.0
23/11/2022,05:21:59,-0.001,0.0,0.0,0.0
23/11/2022,05:23:00,-0.001,0.0,0.0,0.0
23/11/2022,05:23:59,-0.001,0.0,0.0,0.0
23/11/2022,05:24:59,-0.001,0.0,0.0,0.0
23/11/2022,05:25:59,-0.001,0.0,0.0,0.0
23/11/2022,05:26:59,-0.001,0.0,0.0,0.0
23/11/2022,05:27:59,-0.001,0.0,0.0,0.0
23/11/2022,05:29:00,-0.001,0.0,0.0,0.0
23/11/2022,05:29:59,-0.001,0.0,0.0,0.0
23/11/2022,05:30:59,-0.000,0.0,0.0,0.0
23/11/2022,05:31:59,-0.001,0.0,0.0,0.0
23/11/2022,05:32:59,-0.001,0.0,0.0,0.0
23/11/2022,05:34:00,-0.000,0.0,0.0,0.0
23/11/2022,05:34:59,-0.001,0.0,0.0,0.0
23/11/2022,05:35:59,-0.001,0.0,0.0,0.0
23/11/2022,05:36:59,-0.001,0.0,0.0,0.0
23/11/2022,05:37:59,-0.001,0.0,0.0,0.0
23/11/2022,05:39:00,-0.001,0.0,0.0,0.0
23/11/2022,05:39:59,-0.000,0.0,0.0,0.0
23/11/2022,05:40:59,-0.000,0.0,0.0,0.0
23/11/2022,05:42:00,-0.001,0.0,0.0,0.0
23/11/2022,05:42:59,-0.001,0.0,0.0,0.0
23/11/2022,05:43:59,-0.001,0.0,0.0,0.0
23/11/2022,05:45:00,-0.002,0.0,0.0,0.0
23/11/2022,05:45:59,-0.001,0.0,0.0,0.0
23/11/2022,05:46:59,-0.001,0.0,0.0,0.0
23/11/2022,05:48:00,-0.001,0.0,0.0,0.0
23/11/2022,05:48:59,-0.001,0.0,0.0,0.0
23/11/2022,05:49:59,-0.001,0.0,0.0,0.0
23/11/2022,05:51:00,-0.001,0.0,0.0,0.0
23/11/2022,05:51:59,-0.001,0.0,0.0,0.0
23/11/2022,05:53:00,-0.001,0.0,0.0,0.0
23/11/2022,05:53:59,-0.001,0.0,0.0,0.0
23/11/2022,05:54:59,-0.001,0.0,0.0,0.0
23/11/2022,05:55:59,-0.002,0.0,0.0,0.0
23/11/2022,05:56:59,-0.001,0.0,0.0,0.0
23/11/2022,05:57:59,-0.001,0.0,0.0,0.0
23/11/2022,05:58:59,-0.001,0.0,0.0,0.0
23/11/2022,05:59:59,-0.000,0.0,0.0,0.0
23/11/2022,06:00:59,-0.001,0.0,0.0,0.0
23/11/2022,06:02:00,-0.001,0.0,0.0,0.0
23/11/2022,06:02:59,-0.001,0.0,0.0,0.0
23/11/2022,06:03:59,-0.001,0.0,0.0,0.0
23/11/2022,06:04:59,-0.001,0.0,0.0,0.0
23/11/2022,06:06:01,-0.001,0.0,0.0,0.0
23/11/2022,06:07:00,-0.001,0.0,0.0,0.0
23/11/2022,06:07:59,-0.001,0.0,0.0,0.0
23/11/2022,06:09:00,-0.001,0.0,0.0,0.0
23/11/2022,06:09:59,-0.001,0.0,0.0,0.0
23/11/2022,06:11:00,-0.001,0.0,0.0,0.0
23/11/2022,06:11:59,-0.001,0.0,0.0,0.0
23/11/2022,06:13:00,-0.001,0.0,0.0,0.0
23/11/2022,06:13:59,-0.001,0.0,0.0,0.0
23/11/2022,06:15:00,-0.001,0.0,0.0,0.0
23/11/2022,06:15:59,-0.000,0.0,0.0,0.0
23/11/2022,06:16:59,-0.001,0.0,0.0,0.0
23/11/2022,06:17:59,-0.002,0.0,0.0,0.0
23/11/2022,06:18:59,-0.001,0.0,0.0,0.0
23/11/2022,06:19:59,-0.001,0.0,0.0,0.0
23/11/2022,06:20:59,-0.001,0.0,0.0,0.0
23/11/2022,06:22:00,-0.002,0.0,0.0,0.0
23/11/2022,06:22:59,-0.001,0.0,0.0,0.0
23/11/2022,06:23:59,-0.001,0.0,0.0,0.0
23/11/2022,06:24:59,-0.001,0.0,0.0,0.0
23/11/2022,06:25:59,-0.001,0.0,0.0,0.0
23/11/2022,06:27:00,-0.002,0.0,0.0,0.0
23/11/2022,06:27:59,-0.001,0.0,0.0,0.0
23/11/2022,06:28:59,-0.001,0.0,0.0,0.0
23/11/2022,06:29:59,-0.001,0.0,0.0,0.0
23/11/2022,06:31:00,-0.001,0.0,0.0,0.0
23/11/2022,06:32:00,-0.001,0.0,0.0,0.0
23/11/2022,06:33:00,-0.001,0.0,0.0,0.0
23/11/2022,06:34:00,-0.001,0.0,0.0,0.0
23/11/2022,06:35:01,-0.001,0.0,0.0,0.0
23/11/2022,06:36:00,-0.001,0.0,0.0,0.0
23/11/2022,06:37:00,-0.001,0.0,0.0,0.0
23/11/2022,06:37:59,-0.000,0.0,0.0,0.0
23/11/2022,06:38:59,-0.000,0.0,0.0,0.0
23/11/2022,06:40:00,-0.001,0.0,0.0,0.0
23/11/2022,06:40:59,-0.001,0.0,0.0,0.0
23/11/2022,06:41:59,-0.001,0.0,0.0,0.0
23/11/2022,06:42:59,-0.001,0.0,0.0,0.0
23/11/2022,06:43:59,-0.000,0.0,0.0,0.0
23/11/2022,06:45:00,-0.001,0.0,0.0,0.0
23/11/2022,06:45:59,-0.001,0.0,0.0,0.0
23/11/2022,06:46:59,-0.001,0.0,0.0,0.0
23/11/2022,06:47:59,-0.001,0.0,0.0,0.0
23/11/2022,06:48:59,-0.001,0.0,0.0,0.0
23/11/2022,06:49:59,-0.001,0.0,0.0,0.0
23/11/2022,06:50:59,-0.001,0.0,0.0,0.0
23/11/2022,06:51:59,-0.001,0.0,0.0,0.0
23/11/2022,06:53:00,-0.000,0.0,0.0,0.0
23/11/2022,06:53:59,-0.001,0.0,0.0,0.0
23/11/2022,06:54:59,-0.001,0.0,0.0,0.0
23/11/2022,06:56:00,-0.001,0.0,0.0,0.0
23/11/2022,06:56:59,-0.002,0.0,0.0,0.0
23/11/2022,06:57:59,-0.001,0.0,0.0,0.0
23/11/2022,06:59:00,-0.002,0.0,0.0,0.0
23/11/2022,06:59:59,-0.001,0.0,0.0,0.0
23/11/2022,07:00:59,-0.000,0.0,0.0,0.0
23/11/2022,07:02:00,-0.001,0.0,0.0,0.0
23/11/2022,07:02:59,-0.001,0.0,0.0,0.0
23/11/2022,07:03:59,-0.002,0.0,0.0,0.0
23/11/2022,07:05:00,-0.001,0.0,0.0,0.0
23/11/2022,07:05:59,-0.001,0.0,0.0,0.0
23/11/2022,07:06:59,-0.001,0.0,0.0,0.0
23/11/2022,07:08:00,-0.001,0.0,0.0,0.0
23/11/2022,07:09:00,-0.001,0.0,0.0,0.0
23/11/2022,07:10:00,-0.002,0.0,0.0,0.0
23/11/2022,07:10:59,-0.001,0.0,0.0,0.0
23/11/2022,07:11:59,-0.001,0.0,0.0,0.0
23/11/2022,07:13:00,-0.001,0.0,0.0,0.0
23/11/2022,07:13:59,-0.001,0.0,0.0,0.0
23/11/2022,07:14:59,-0.001,0.0,0.0,0.0
23/11/2022,07:16:00,-0.001,0.0,0.0,0.0
23/11/2022,07:16:59,-0.001,0.0,0.0,0.0
23/11/2022,07:17:59,-0.001,0.0,0.0,0.0
23/11/2022,07:19:00,-0.001,0.0,0.0,0.0
23/11/2022,07:20:00,-0.002,0.0,0.0,0.0
23/11/2022,07:21:00,-0.002,0.0,0.0,0.0
23/11/2022,07:21:59,-0.001,0.0,0.0,0.0
23/11/2022,07:22:59,-0.000,0.0,0.0,0.0
23/11/2022,07:23:59,-0.001,0.0,0.0,0.0
23/11/2022,07:24:59,-0.002,0.0,0.0,0.0
23/11/2022,07:25:59,-0.001,0.0,0.0,0.0
23/11/2022,07:27:00,-0.002,0.0,0.0,0.0
23/11/2022,07:27:59,-0.001,0.0,0.0,0.0
23/11/2022,07:28:59,-0.001,0.0,0.0,0.0
23/11/2022,07:29:59,-0.002,0.0,0.0,0.0
23/11/2022,07:31:00,-0.001,0.0,0.0,0.0
23/11/2022,07:31:59,-0.001,0.0,0.0,0.0
23/11/2022,07:32:59,-0.002,0.0,0.0,0.0
23/11/2022,07:33:59,-0.001,0.0,0.0,0.0
23/11/2022,07:35:00,-0.001,0.0,0.0,0.0
23/11/2022,07:35:59,-0.001,0.0,0.0,0.0
23/11/2022,07:36:59,-0.001,0.0,0.0,0.0
23/11/2022,07:38:00,-0.001,0.0,0.0,0.0
23/11/2022,07:38:59,-0.001,0.0,0.0,0.0
23/11/2022,07:39:59,-0.002,0.0,0.0,0.0
23/11/2022,07:41:00,-0.001,0.0,0.0,0.0
23/11/2022,07:41:59,-0.001,0.0,0.0,0.0
23/11/2022,07:42:59,-0.001,0.0,0.0,0.0
23/11/2022,07:44:00,-0.001,0.0,0.0,0.0
23/11/2022,07:44:59,-0.001,0.0,0.0,0.0
23/11/2022,07:46:00,-0.002,0.0,0.0,0.0
23/11/2022,07:46:59,-0.001,0.0,0.0,0.0
23/11/2022,07:47:59,-0.000,0.0,0.0,0.0
23/11/2022,07:49:00,-0.001,0.0,0.0,0.0
23/11/2022,07:50:00,-0.001,0.0,0.0,0.0
23/11/2022,07:51:00,-0.001,0.0,0.0,0.0
23/11/2022,07:51:59,-0.001,0.0,0.0,0.0
23/11/2022,07:52:59,-0.000,0.0,0.0,0.0
23/11/2022,07:54:00,-0.000,0.0,0.0,0.0
23/11/2022,07:54:59,-0.000,0.0,0.0,0.0
23/11/2022,07:56:00,-0.000,0.0,0.0,0.0
23/11/2022,07:57:00,0.001,0.0,0.0,0.0
23/11/2022,07:58:00,-0.000,0.0,0.0,0.0
23/11/2022,07:59:00,-0.000,0.0,0.0,0.0
23/11/2022,07:59:59,0.000,0.0,0.0,0.0
23/11/2022,08:01:00,0.000,0.0,0.0,0.0
23/11/2022,08:01:59,-0.000,0.0,0.0,0.0
23/11/2022,08:03:00,-0.000,0.0,0.0,0.0
23/11/2022,08:03:59,-0.000,0.0,0.0,0.0
23/11/2022,08:05:00,-0.000,0.0,0.0,0.0
23/11/2022,08:05:59,-0.000,0.0,0.0,0.0
23/11/2022,08:07:00,-0.000,0.0,0.0,0.0
23/11/2022,08:07:59,-0.000,0.0,0.0,0.0
23/11/2022,08:08:59,-0.001,0.0,0.0,0.0
23/11/2022,08:10:00,-0.001,0.0,0.0,0.0
23/11/2022,08:11:00,-0.002,0.0,0.0,0.0
23/11/2022,08:12:00,-0.000,0.0,0.0,0.0
23/11/2022,08:12:59,-0.000,0.0,0.0,0.0
23/11/2022,08:13:59,-0.000,0.0,0.0,0.0
23/11/2022,08:15:00,-0.000,0.0,0.0,0.0
23/11/2022,08:15:59,-0.001,0.0,0.0,0.0
23/11/2022,08:17:00,-0.000,0.0,0.0,0.0
23/11/2022,08:17:59,-0.000,0.0,0.0,0.0
23/11/2022,08:18:59,-0.000,0.0,0.0,0.0
23/11/2022,08:19:59,-0.001,0.0,0.0,0.0
23/11/2022,08:20:59,-0.001,0.0,0.0,0.0
23/11/2022,08:22:00,-0.000,0.0,0.0,0.0
23/11/2022,08:23:00,-0.002,0.0,0.0,0.0
23/11/2022,08:24:00,-0.001,0.0,0.0,0.0
23/11/2022,08:24:59,-0.001,0.0,0.0,0.0
23/11/2022,08:25:59,-0.000,0.0,0.0,0.0
23/11/2022,08:27:00,0.001,0.0,0.0,0.0
23/11/2022,08:28:00,0.001,0.0,0.0,0.0
23/11/2022,08:29:00,0.001,0.0,0.0,0.0
23/11/2022,08:29:59,0.001,0.0,0.0,0.0
23/11/2022,08:31:00,0.001,0.0,0.0,0.0
23/11/2022,08:31:59,0.002,0.0,0.0,0.0
23/11/2022,08:33:00,0.002,0.0,0.0,0.0
23/11/2022,08:33:59,0.003,0.0,0.0,0.0
23/11/2022,08:34:59,0.002,0.0,0.0,0.0
23/11/2022,08:36:00,0.004,0.0,0.0,0.0
23/11/2022,08:37:00,0.004,0.0,0.0,0.0
23/11/2022,08:37:59,0.004,0.0,0.0,0.0
23/11/2022,08:39:00,0.007,0.0,0.0,0.0
23/11/2022,08:40:00,0.010,0.0,0.0,0.0
23/11/2022,08:41:00,0.010,0.0,0.0,0.0
23/11/2022,08:41:59,0.012,0.0,0.001,0.001
23/11/2022,08:43:00,0.013,0.0,0.001,0.0
23/11/2022,08:44:00,0.014,0.0,0.001,0.0
23/11/2022,08:45:00,0.016,0.0,0.001,0.0
23/11/2022,08:45:59,0.017,0.0,0.002,0.001
23/11/2022,08:46:59,0.019,0.0,0.002,0.0
23/11/2022,08:48:00,0.019,0.0,0.002,0.0
23/11/2022,08:49:00,0.020,0.0,0.003,0.001
23/11/2022,08:49:59,0.021,0.0,0.003,0.0
23/11/2022,08:51:00,0.022,0.0,0.003,0.0
23/11/2022,08:51:59,0.023,0.0,0.004,0.001
23/11/2022,08:52:59,0.024,0.0,0.004,0.0
23/11/2022,08:54:00,0.025,0.0,0.004,0.0
23/11/2022,08:54:59,0.027,0.0,0.005,0.001
23/11/2022,08:56:00,0.026,0.0,0.005,0.0
23/11/2022,08:57:00,0.029,0.0,0.006,0.001
23/11/2022,08:58:00,0.031,0.0,0.006,0.0
23/11/2022,08:59:00,0.032,0.0,0.007,0.001
23/11/2022,08:59:59,0.033,0.0,0.007,0.0
23/11/2022,09:01:00,0.034,0.0,0.008,0.001
23/11/2022,09:01:59,0.034,0.0,0.009,0.001
23/11/2022,09:03:00,0.036,0.0,0.009,0.0
23/11/2022,09:04:00,0.036,0.0,0.01,0.001
23/11/2022,09:04:59,0.037,0.0,0.01,0.0
23/11/2022,09:06:00,0.038,0.0,0.011,0.001
23/11/2022,09:06:59,0.039,0.0,0.012,0.001
23/11/2022,09:08:00,0.038,0.0,0.012,0.0
23/11/2022,09:09:00,0.039,0.0,0.013,0.001
23/11/2022,09:10:00,0.041,0.0,0.014,0.001
23/11/2022,09:10:59,0.042,0.0,0.014,0.0
23/11/2022,09:12:00,0.044,0.0,0.015,0.001
23/11/2022,09:13:00,0.045,0.0,0.016,0.001
23/11/2022,09:14:00,0.046,0.0,0.016,0.0
23/11/2022,09:14:59,0.046,0.0,0.017,0.001
23/11/2022,09:15:59,0.049,0.0,0.018,0.001
23/11/2022,09:17:00,0.052,0.0,0.019,0.001
23/11/2022,09:17:59,0.053,0.0,0.02,0.001
23/11/2022,09:18:59,0.056,0.0,0.021,0.001
23/11/2022,09:20:00,0.057,0.0,0.022,0.001
23/11/2022,09:21:00,0.059,0.0,0.023,0.001
23/11/2022,09:22:00,0.060,0.0,0.024,0.001
23/11/2022,09:22:59,0.060,0.0,0.025,0.001
23/11/2022,09:24:00,0.061,0.0,0.026,0.001
23/11/2022,09:25:00,0.062,0.0,0.027,0.001
23/11/2022,09:26:00,0.063,0.0,0.028,0.001
23/11/2022,09:26:59,0.064,0.0,0.029,0.001
23/11/2022,09:28:00,0.064,0.0,0.03,0.001
23/11/2022,09:28:59,0.067,0.0,0.031,0.001
23/11/2022,09:30:00,0.067,0.0,0.032,0.001
23/11/2022,09:30:59,0.068,0.0,0.033,0.001
23/11/2022,09:32:00,0.070,0.0,0.034,0.001
23/11/2022,09:32:59,0.070,0.0,0.035,0.001
23/11/2022,09:33:59,0.071,0.0,0.037,0.002
23/11/2022,09:35:00,0.072,0.0,0.038,0.001
23/11/2022,09:35:59,0.074,0.0,0.039,0.001
23/11/2022,09:37:00,0.074,0.0,0.04,0.001
23/11/2022,09:37:59,0.075,0.0,0.041,0.001
23/11/2022,09:38:59,0.076,0.0,0.043,0.002
23/11/2022,09:40:00,0.076,0.0,0.044,0.001
23/11/2022,09:41:00,0.078,0.0,0.045,0.001
23/11/2022,09:42:00,0.078,0.0,0.047,0.002
23/11/2022,09:42:59,0.080,0.0,0.048,0.001
23/11/2022,09:44:00,0.081,0.0,0.049,0.001
23/11/2022,09:44:59,0.082,0.0,0.051,0.002
23/11/2022,09:46:00,0.083,0.0,0.052,0.001
23/11/2022,09:47:00,0.084,0.0,0.053,0.001
23/11/2022,09:48:00,0.085,0.0,0.055,0.002
23/11/2022,09:49:00,0.086,0.0,0.056,0.001
23/11/2022,09:50:00,0.087,0.0,0.058,0.002
23/11/2022,09:51:00,0.088,0.0,0.059,0.001
23/11/2022,09:51:59,0.089,0.0,0.061,0.002
23/11/2022,09:52:59,0.090,0.0,0.062,0.001
23/11/2022,09:54:00,0.092,0.0,0.064,0.002
23/11/2022,09:54:59,0.092,0.0,0.065,0.001
23/11/2022,09:56:00,0.093,0.0,0.067,0.002
23/11/2022,09:57:00,0.094,0.0,0.068,0.001
23/11/2022,09:57:59,0.095,0.0,0.07,0.002
23/11/2022,09:59:00,0.097,0.0,0.071,0.001
23/11/2022,09:59:59,0.097,0.0,0.073,0.002
23/11/2022,10:01:00,0.097,0.0,0.075,0.002
23/11/2022,10:01:59,0.099,0.0,0.076,0.001
23/11/2022,10:02:59,0.100,0.0,0.078,0.002
23/11/2022,10:04:00,0.101,0.0,0.08,0.002
23/11/2022,10:04:59,0.102,0.0,0.081,0.001
23/11/2022,10:05:59,0.104,0.0,0.083,0.002
23/11/2022,10:07:00,0.104,0.0,0.085,0.002
23/11/2022,10:08:00,0.105,0.0,0.087,0.002
23/11/2022,10:09:00,0.106,0.0,0.088,0.001
23/11/2022,10:10:00,0.107,0.0,0.09,0.002
23/11/2022,10:11:00,0.109,0.0,0.092,0.002
23/11/2022,10:11:59,0.109,0.0,0.094,0.002
23/11/2022,10:13:22,0.110,0.0,0.096,0.002